| time (UTC) | temp C | wind direction | speed KPH | gust KPH | rain 1hr cm | rain 24hr cm | rain mn cm | humidity % | barometer mb |
| 20260505011536 | 9 | 222 | 1.6 | 17.7 | 0.00 | 0.00 | 0.00 | 82 | 1008.2 |
| 20260505004534 | 8 | 0 | 0.0 | 6.4 | 0.00 | 0.00 | 0.00 | 82 | 1008.0 |
| 20260505003048 | 8 | 0 | 1.6 | 6.4 | 0.00 | 0.00 | 0.00 | 80 | 1007.7 |
| 20260505001541 | 9 | 0 | 1.6 | 6.4 | 0.00 | 0.00 | 0.00 | 78 | 1007.6 |
| 20260505000045 | 9 | 189 | 3.2 | 11.3 | 0.00 | 0.00 | 0.00 | 77 | 1007.5 |
| 20260504234539 | 10 | 0 | 1.6 | 8.0 | 0.00 | 0.00 | 0.00 | 76 | 1007.4 |
| 20260504233041 | 10 | 250 | 1.6 | 6.4 | 0.00 | 0.00 | 0.00 | 74 | 1007.1 |
| 20260504231536 | 11 | 175 | 1.6 | 8.0 | 0.00 | 0.00 | 0.00 | 72 | 1007.0 |
| 20260504230100 | 11 | 196 | 4.8 | 12.9 | 0.00 | 0.00 | 0.00 | 70 | 1006.8 |
| 20260504224556 | 12 | 225 | 3.2 | 6.4 | 0.00 | 0.00 | 0.00 | 68 | 1006.6 |
| 20260504223036 | 12 | 220 | 1.6 | 12.9 | 0.00 | 0.00 | 0.00 | 66 | 1006.6 |
| 20260504221535 | 13 | 202 | 1.6 | 8.0 | 0.00 | 0.00 | 0.00 | 64 | 1006.6 |
| 20260504220038 | 15 | 192 | 3.2 | 8.0 | 0.00 | 0.00 | 0.00 | 60 | 1006.7 |
| 20260504214546 | 16 | 163 | 4.8 | 9.7 | 0.00 | 0.00 | 0.00 | 56 | 1006.6 |
| 20260504213040 | 17 | 169 | 4.8 | 16.1 | 0.00 | 0.00 | 0.00 | 55 | 1006.5 |
| 20260504211541 | 17 | 163 | 3.2 | 11.3 | 0.00 | 0.00 | 0.00 | 55 | 1006.5 |
| 20260504210050 | 18 | 41 | 3.2 | 8.0 | 0.00 | 0.00 | 0.00 | 53 | 1006.3 |
| 20260504204548 | 18 | 101 | 3.2 | 9.7 | 0.00 | 0.00 | 0.00 | 52 | 1006.3 |
| 20260504203045 | 18 | 301 | 3.2 | 8.0 | 0.00 | 0.00 | 0.00 | 49 | 1006.3 |
| 20260504201547 | 17 | 279 | 4.8 | 12.9 | 0.00 | 0.00 | 0.00 | 50 | 1006.2 |
| 20260504200050 | 17 | 344 | 4.8 | 14.5 | 0.00 | 0.00 | 0.00 | 50 | 1006.2 |
| 20260504194539 | 17 | 348 | 1.6 | 8.0 | 0.00 | 0.00 | 0.00 | 52 | 1006.3 |
| 20260504193037 | 16 | 200 | 3.2 | 8.0 | 0.00 | 0.00 | 0.00 | 54 | 1006.4 |
| 20260504191552 | 15 | 0 | 1.6 | 6.4 | 0.00 | 0.00 | 0.00 | 61 | 1006.7 |
| 20260504190042 | 14 | 237 | 1.6 | 4.8 | 0.00 | 0.00 | 0.00 | 60 | 1006.9 |
| 20260504184541 | 14 | 209 | 3.2 | 11.3 | 0.00 | 0.00 | 0.00 | 58 | 1006.7 |
| 20260504183038 | 14 | 236 | 3.2 | 12.9 | 0.00 | 0.00 | 0.00 | 58 | 1006.6 |
| 20260504181535 | 13 | 205 | 4.8 | 12.9 | 0.00 | 0.00 | 0.00 | 61 | 1006.8 |
| 20260504180034 | 13 | 221 | 1.6 | 12.9 | 0.00 | 0.00 | 0.00 | 61 | 1006.8 |
| 20260504174541 | 14 | 179 | 8.0 | 20.9 | 0.00 | 0.05 | 0.00 | 57 | 1006.5 |
| 20260504173039 | 14 | 148 | 12.9 | 32.2 | 0.00 | 0.05 | 0.00 | 54 | 1006.4 |
| 20260504171539 | 16 | 225 | 12.9 | 32.2 | 0.00 | 0.05 | 0.00 | 51 | 1006.3 |
| 20260504081539 | 2 | 0 | 0.0 | 0.0 | 0.00 | 0.84 | 0.00 | 86 | 1008.7 |
| 20260504044543 | 3 | 0 | 0.0 | 0.0 | 0.00 | 0.86 | 0.00 | 77 | 1008.3 |
| 20260504043053 | 3 | 0 | 0.0 | 3.2 | 0.00 | 0.86 | 0.00 | 76 | 1008.4 |
| 20260504041536 | 3 | 0 | 0.0 | 3.2 | 0.00 | 0.86 | 0.00 | 74 | 1008.4 |
| 20260504040034 | 5 | 0 | 0.0 | 1.6 | 0.00 | 0.86 | 0.00 | 72 | 1008.3 |
| 20260504034547 | 5 | 0 | 0.0 | 4.8 | 0.00 | 0.86 | 0.86 | 68 | 1008.2 |
| 20260504033040 | 6 | 256 | 0.0 | 6.4 | 0.00 | 0.86 | 0.86 | 64 | 1008.1 |
| 20260504031549 | 6 | 286 | 3.2 | 11.3 | 0.00 | 0.86 | 0.86 | 63 | 1008.0 |
| 20260504030050 | 6 | 0 | 4.8 | 16.1 | 0.00 | 0.86 | 0.86 | 62 | 1007.9 |
| 20260504024539 | 6 | 309 | 4.8 | 12.9 | 0.00 | 0.86 | 0.86 | 62 | 1007.9 |
| 20260504023035 | 6 | 302 | 1.6 | 11.3 | 0.00 | 0.86 | 0.86 | 61 | 1007.8 |
| 20260504021547 | 6 | 281 | 1.6 | 8.0 | 0.00 | 0.86 | 0.86 | 60 | 1007.7 |
| 20260504020040 | 7 | 261 | 1.6 | 14.5 | 0.00 | 0.86 | 0.86 | 59 | 1007.6 |
| 20260504014540 | 7 | 0 | 1.6 | 14.5 | 0.00 | 0.86 | 0.86 | 58 | 1007.4 |
| 20260504013038 | 7 | 304 | 3.2 | 14.5 | 0.00 | 0.86 | 0.86 | 58 | 1007.4 |